Location: Highland Meadows Observing Site
(48.4428°N, 114.5461°W)
Time: 16:26:50
(UTC-06:00)

Gurwin Techsat 1B - Visible Passes

Search period start: 22 October 2014 00:00
Search period end: 01 November 2014 00:00
Orbit: 813 x 814 km, 98.5° (Epoch: 21 October)

Date Brightness Start Highest point End Pass type
(mag) Time Alt. Az. Time Alt. Az. Time Alt. Az.
22 Oct 11.2 03:35:39 10° NE 03:36:51 15° NE 03:36:51 15° NE visible
22 Oct 9.8 05:15:09 10° N 05:18:04 31° N 05:18:04 31° N visible
23 Oct 11.6 03:13:43 10° NE 03:13:47 10° NE 03:13:47 10° NE visible
23 Oct 10.0 04:52:22 10° NNE 04:55:00 30° N 04:55:00 30° N visible
23 Oct 10.4 06:34:03 10° NNW 06:36:12 14° NW 06:36:12 14° NW visible
24 Oct 10.4 04:29:42 10° NNE 04:31:56 26° NNE 04:31:56 26° NNE visible
24 Oct 10.2 06:10:38 10° NNW 06:13:08 19° NW 06:13:08 19° NW visible
25 Oct 10.9 04:07:10 10° NNE 04:08:52 20° NNE 04:08:52 20° NNE visible
25 Oct 10.1 05:47:31 10° N 05:50:04 23° NNW 05:50:04 23° NNW visible
26 Oct 11.3 03:44:47 10° NNE 03:45:48 15° NE 03:45:48 15° NE visible
26 Oct 10.1 05:24:34 10° N 05:27:00 26° NNW 05:27:00 26° NNW visible
27 Oct 11.6 03:22:41 10° NE 03:22:44 10° NE 03:22:44 10° NE visible
27 Oct 10.2 05:01:44 10° N 05:03:56 25° N 05:03:56 25° N visible
27 Oct 10.5 06:43:55 10° NNW 06:45:09 12° NW 06:45:09 12° NW visible
28 Oct 10.6 04:39:02 10° NNE 04:40:52 22° NNE 04:40:52 22° NNE visible
28 Oct 10.4 06:20:14 10° NNW 06:22:05 16° NW 06:22:05 16° NW visible
29 Oct 10.9 04:16:26 10° NNE 04:17:48 18° NNE 04:17:48 18° NNE visible
29 Oct 10.3 05:57:01 10° N 05:59:01 19° NNW 05:59:01 19° NNW visible
30 Oct 11.3 03:53:58 10° NNE 03:54:44 14° NNE 03:54:44 14° NNE visible
30 Oct 10.3 05:34:01 10° N 05:35:57 21° NNW 05:35:57 21° NNW visible
31 Oct 10.5 05:11:08 10° N 05:12:53 21° N 05:12:53 21° N visible
